Location: Be?i?
(36.9044°N, 30.1006°E)
Time: 11:49:44
(UTC+00:00)

Cosmos 2297 Rocket - Pass Details

Date: 05 August 2024
Orbit: 837 x 844 km, 71.0° (Epoch: 08 September)

Event Time Altitude Azimuth Distance (km) Brightness Sun altitude
Rises 21:43:16 0° 326° (NW) 3,407 6.1 -36.2°
Reaches altitude 10° 21:45:59 10° 316° (NW) 2,468 5.1 -36.3°
Enters shadow 21:48:10 21° 300° (WNW) 1,833 4.2 -36.3°
